When you browse on this site, cookies collect data to enhance your experience and personalize the content and advertising you see.
Visit our Privacy Policy to learn more. By continuing to use the site, you agree to this use of cookies and data.
  • In Deutschland
  • Länderverzeichnis
  • Für 7 Tage
  • Wassertemperatur
  • Wetterkarte
  • Widgets
  • user-avatar
    Anmelden

    Stündliche Wetter Graz

    Heute, 22 August, Donnerstag

    Zeit Temperatur Niederschläge Wind Luftdruck Luftfeuchtigkeit
    00:00 +16°C° 0.2 mm 1 m/S 731 mmHg 89%
    01:00 +15°C° 0.2 mm 1 m/S 731 mmHg 89%
    02:00 +15°C° 0.1 mm 1 m/S 730 mmHg 89%
    03:00 +15°C° 0.1 mm 1 m/S 730 mmHg 89%
    04:00 +15°C° 0.1 mm 1 m/S 730 mmHg 88%
    05:00 +16°C° 0.1 mm 1 m/S 730 mmHg 87%
    06:00 +16°C° 0.1 mm 0 m/S 730 mmHg 86%
    07:00 +16°C° 0.1 mm 0 m/S 730 mmHg 84%
    08:00 +18°C° 0 mm 0 m/S 730 mmHg 76%
    09:00 +22°C° 0 mm 1 m/S 730 mmHg 67%
    10:00 +24°C° 0 mm 1 m/S 730 mmHg 58%
    11:00 +25°C° 0 mm 1 m/S 730 mmHg 56%
    12:00 +26°C° 0 mm 1 m/S 730 mmHg 54%
    13:00 +27°C° 0 mm 2 m/S 730 mmHg 52%
    14:00 +27°C° 0 mm 2 m/S 730 mmHg 55%
    15:00 +26°C° 0 mm 2 m/S 729 mmHg 57%
    16:00 +26°C° 0 mm 2 m/S 729 mmHg 60%
    17:00 +24°C° 0 mm 1 m/S 729 mmHg 69%
    18:00 +23°C° 0 mm 1 m/S 729 mmHg 78%
    19:00 +21°C° 0 mm 1 m/S 729 mmHg 87%
    20:00 +21°C° 0 mm 1 m/S 729 mmHg 88%
    21:00 +18°C° 0 mm 0 m/S 729 mmHg 88%
    22:00 +18°C° 0 mm 0 m/S 730 mmHg 89%
    23:00 +18°C° 0.1 mm 0 m/S 730 mmHg 90%

    Morgen, 23 August, Freitag

    Zeit Temperatur Niederschläge Wind Luftdruck Luftfeuchtigkeit
    00:00 +18°C° 0.1 mm 0 m/S 730 mmHg 90%
    01:00 +17°C° 0.1 mm 0 m/S 730 mmHg 90%
    02:00 +17°C° 0 mm 0 m/S 730 mmHg 91%
    03:00 +17°C° 0 mm 0 m/S 730 mmHg 91%
    04:00 +17°C° 0 mm 0 m/S 729 mmHg 91%
    05:00 +18°C° 0 mm 0 m/S 729 mmHg 89%
    06:00 +18°C° 0 mm 0 m/S 730 mmHg 88%
    07:00 +19°C° 0 mm 0 m/S 730 mmHg 86%
    08:00 +20°C° 0 mm 0 m/S 730 mmHg 82%
    09:00 +21°C° 0 mm 0 m/S 730 mmHg 78%
    10:00 +24°C° 0 mm 1 m/S 730 mmHg 74%
    11:00 +25°C° 0 mm 1 m/S 730 mmHg 73%
    12:00 +25°C° 0 mm 1 m/S 729 mmHg 71%
    13:00 +26°C° 0 mm 1 m/S 729 mmHg 70%
    14:00 +26°C° 0 mm 1 m/S 729 mmHg 69%
    15:00 +26°C° 0 mm 1 m/S 728 mmHg 69%
    16:00 +27°C° 0 mm 1 m/S 728 mmHg 68%
    17:00 +25°C° 0.4 mm 1 m/S 728 mmHg 74%
    18:00 +24°C° 0.4 mm 1 m/S 728 mmHg 81%
    19:00 +21°C° 0.4 mm 0 m/S 728 mmHg 87%
    20:00 +20°C° 0.6 mm 0 m/S 728 mmHg 88%
    21:00 +19°C° 0.6 mm 0 m/S 728 mmHg 90%
    22:00 +19°C° 0.6 mm 0 m/S 728 mmHg 91%
    23:00 +19°C° 0.8 mm 0 m/S 728 mmHg 92%

    übermorgen, 24 August, Samstag

    Zeit Temperatur Niederschläge Wind Luftdruck Luftfeuchtigkeit
    00:00 +18°C° 0.8 mm 0 m/S 728 mmHg 92%
    01:00 +18°C° 0.8 mm 0 m/S 727 mmHg 92%
    02:00 +18°C° 0.8 mm 0 m/S 727 mmHg 92%
    03:00 +18°C° 0.8 mm 0 m/S 727 mmHg 93%
    04:00 +18°C° 0.8 mm 0 m/S 727 mmHg 93%
    05:00 +19°C° 0.1 mm 0 m/S 727 mmHg 92%
    06:00 +19°C° 0.1 mm 0 m/S 727 mmHg 91%
    07:00 +20°C° 0.1 mm 0 m/S 727 mmHg 90%
    08:00 +23°C° 0.4 mm 1 m/S 727 mmHg 85%
    09:00 +25°C° 0.4 mm 1 m/S 727 mmHg 79%
    10:00 +26°C° 0.4 mm 1 m/S 728 mmHg 74%
    11:00 +27°C° 1.3 mm 1 m/S 727 mmHg 72%
    12:00 +27°C° 1.3 mm 1 m/S 727 mmHg 71%
    13:00 +28°C° 1.3 mm 1 m/S 727 mmHg 70%
    14:00 +28°C° 0.7 mm 1 m/S 727 mmHg 69%
    15:00 +28°C° 0.7 mm 1 m/S 726 mmHg 68%
    16:00 +28°C° 0.7 mm 1 m/S 726 mmHg 68%
    17:00 +26°C° 0.8 mm 1 m/S 726 mmHg 73%
    18:00 +25°C° 0.8 mm 1 m/S 726 mmHg 78%
    19:00 +23°C° 0.8 mm 1 m/S 726 mmHg 83%
    20:00 +22°C° 0.7 mm 1 m/S 726 mmHg 85%
    21:00 +21°C° 0.7 mm 1 m/S 726 mmHg 86%
    22:00 +21°C° 0.7 mm 1 m/S 726 mmHg 88%
    23:00 +20°C° 0.6 mm 1 m/S 726 mmHg 89%

    25 August, Sonntag

    Zeit Temperatur Niederschläge Wind Luftdruck Luftfeuchtigkeit
    00:00 +20°C° 0.6 mm 1 m/S 726 mmHg 89%
    01:00 +20°C° 0.6 mm 1 m/S 726 mmHg 90%
    02:00 +20°C° 0.1 mm 1 m/S 726 mmHg 90%
    03:00 +20°C° 0.1 mm 1 m/S 726 mmHg 90%
    04:00 +20°C° 0.1 mm 1 m/S 726 mmHg 90%
    05:00 +20°C° 0 mm 1 m/S 726 mmHg 89%
    06:00 +21°C° 0 mm 1 m/S 726 mmHg 87%
    07:00 +22°C° 0 mm 1 m/S 726 mmHg 86%
    08:00 +24°C° 0.3 mm 1 m/S 726 mmHg 79%
    09:00 +26°C° 0.3 mm 1 m/S 727 mmHg 72%
    10:00 +28°C° 0.3 mm 1 m/S 727 mmHg 66%
    11:00 +28°C° 1 mm 1 m/S 727 mmHg 65%
    12:00 +28°C° 1 mm 1 m/S 727 mmHg 65%
    13:00 +29°C° 1 mm 1 m/S 726 mmHg 64%
    14:00 +28°C° 0.6 mm 1 m/S 726 mmHg 65%
    15:00 +28°C° 0.6 mm 1 m/S 726 mmHg 67%
    16:00 +28°C° 0.6 mm 1 m/S 726 mmHg 68%
    17:00 +26°C° 0.4 mm 1 m/S 726 mmHg 72%
    18:00 +25°C° 0.4 mm 1 m/S 725 mmHg 77%
    19:00 +23°C° 0.4 mm 1 m/S 725 mmHg 81%
    20:00 +23°C° 1 mm 1 m/S 726 mmHg 83%
    21:00 +22°C° 1 mm 1 m/S 726 mmHg 86%
    22:00 +21°C° 1 mm 1 m/S 726 mmHg 88%
    23:00 +21°C° 0.9 mm 1 m/S 726 mmHg 88%

    26 August, Montag

    Zeit Temperatur Niederschläge Wind Luftdruck Luftfeuchtigkeit
    00:00 +21°C° 0.9 mm 1 m/S 726 mmHg 89%
    01:00 +20°C° 0.9 mm 1 m/S 726 mmHg 89%
    02:00 +20°C° 0.2 mm 1 m/S 726 mmHg 89%
    03:00 +20°C° 0.2 mm 1 m/S 726 mmHg 89%
    04:00 +20°C° 0.2 mm 1 m/S 726 mmHg 89%
    05:00 +21°C° 0 mm 1 m/S 726 mmHg 88%
    06:00 +21°C° 0 mm 1 m/S 727 mmHg 87%
    07:00 +22°C° 0 mm 1 m/S 727 mmHg 85%
    08:00 +24°C° 0.1 mm 1 m/S 727 mmHg 78%
    09:00 +26°C° 0.1 mm 1 m/S 727 mmHg 70%
    10:00 +28°C° 0.1 mm 1 m/S 728 mmHg 62%
    11:00 +29°C° 0.8 mm 1 m/S 727 mmHg 62%
    12:00 +29°C° 0.8 mm 1 m/S 727 mmHg 62%
    13:00 +29°C° 0.8 mm 1 m/S 727 mmHg 62%
    14:00 +29°C° 0.8 mm 1 m/S 727 mmHg 64%
    15:00 +29°C° 0.8 mm 1 m/S 727 mmHg 65%
    16:00 +29°C° 0.8 mm 1 m/S 726 mmHg 66%
    17:00 +27°C° 0.9 mm 1 m/S 726 mmHg 71%
    18:00 +25°C° 0.9 mm 1 m/S 726 mmHg 76%
    19:00 +23°C° 0.9 mm 1 m/S 726 mmHg 81%
    20:00 +23°C° 0.7 mm 1 m/S 726 mmHg 83%
    21:00 +22°C° 0.7 mm 1 m/S 727 mmHg 85%
    22:00 +21°C° 0.7 mm 1 m/S 727 mmHg 87%
    23:00 +21°C° 0.5 mm 1 m/S 727 mmHg 87%

    27 August, Dienstag

    Zeit Temperatur Niederschläge Wind Luftdruck Luftfeuchtigkeit
    00:00 +21°C° 0.5 mm 1 m/S 727 mmHg 88%
    01:00 +21°C° 0.5 mm 1 m/S 726 mmHg 88%
    02:00 +20°C° 0 mm 1 m/S 726 mmHg 88%
    03:00 +20°C° 0 mm 1 m/S 726 mmHg 88%
    04:00 +20°C° 0 mm 1 m/S 726 mmHg 88%
    05:00 +21°C° 0 mm 1 m/S 726 mmHg 86%
    06:00 +22°C° 0 mm 1 m/S 726 mmHg 85%
    07:00 +23°C° 0 mm 1 m/S 727 mmHg 84%
    08:00 +24°C° 0.4 mm 1 m/S 727 mmHg 79%
    09:00 +26°C° 0.4 mm 1 m/S 727 mmHg 74%
    10:00 +27°C° 0.4 mm 1 m/S 727 mmHg 69%
    11:00 +28°C° 0.9 mm 1 m/S 727 mmHg 67%
    12:00 +28°C° 0.9 mm 1 m/S 726 mmHg 65%
    13:00 +29°C° 0.9 mm 1 m/S 726 mmHg 63%
    14:00 +29°C° 0.6 mm 1 m/S 726 mmHg 64%
    15:00 +29°C° 0.6 mm 1 m/S 725 mmHg 65%
    16:00 +29°C° 0.6 mm 1 m/S 725 mmHg 65%
    17:00 +27°C° 0.1 mm 1 m/S 725 mmHg 69%
    18:00 +25°C° 0.1 mm 1 m/S 725 mmHg 73%
    19:00 +21°C° 0.1 mm 0 m/S 725 mmHg 77%
    20:00 +23°C° 0.1 mm 1 m/S 725 mmHg 79%
    21:00 +22°C° 0.1 mm 1 m/S 725 mmHg 80%
    22:00 +22°C° 0.1 mm 1 m/S 725 mmHg 81%
    23:00 +21°C° 0 mm 1 m/S 725 mmHg 82%
    Mehr zeigen